| time (UTC) | temp F | wind direction | speed MPH | gust MPH | rain 1hr in | rain 24hr in | rain mn in | humidity % | barometer mb |
| 20260905083045 | 64 | 12 | 2.0 | 4.0 | 0.00 | 0.00 | 0.00 | 89 | 1012.3 |
| 20260905081543 | 64 | 347 | 1.0 | 5.0 | 0.00 | 0.00 | 0.00 | 88 | 1012.2 |
| 20260905080043 | 64 | 15 | 3.0 | 7.0 | 0.00 | 0.00 | 0.00 | 88 | 1012.2 |
| 20260905074532 | 65 | 18 | 1.0 | 8.0 | 0.00 | 0.00 | 0.00 | 87 | 1012.2 |
| 20260905073032 | 65 | 333 | 1.0 | 4.0 | 0.00 | 0.00 | 0.00 | 87 | 1012.1 |
| 20260905071531 | 65 | 37 | 0.0 | 6.0 | 0.00 | 0.00 | 0.00 | 87 | 1012.0 |
| 20260905070032 | 65 | 333 | 4.0 | 7.0 | 0.00 | 0.00 | 0.00 | 86 | 1012.2 |
| 20260905064531 | 65 | 5 | 3.0 | 7.0 | 0.00 | 0.00 | 0.00 | 86 | 1012.2 |
| 20260905063027 | 65 | 315 | 2.0 | 6.0 | 0.00 | 0.00 | 0.00 | 86 | 1012.2 |
| 20260905061527 | 65 | 316 | 2.0 | 5.0 | 0.00 | 0.00 | 0.00 | 86 | 1012.3 |
| 20260905060033 | 66 | 326 | 0.0 | 5.0 | 0.00 | 0.00 | 0.00 | 85 | 1012.3 |
| 20260905054535 | 66 | 18 | 0.0 | 6.0 | 0.00 | 0.00 | 0.00 | 85 | 1012.3 |
| 20260905053023 | 66 | 339 | 3.0 | 10.0 | 0.00 | 0.00 | 0.00 | 84 | 1012.4 |
| 20260905051528 | 66 | 329 | 3.0 | 8.0 | 0.00 | 0.00 | 0.00 | 84 | 1012.5 |
| 20260905050020 | 66 | 325 | 3.0 | 5.0 | 0.00 | 0.00 | 0.00 | 85 | 1012.6 |
| 20260905044524 | 66 | 266 | 0.0 | 3.0 | 0.00 | 0.00 | 0.00 | 84 | 1012.6 |
| 20260905043017 | 65 | 295 | 2.0 | 5.0 | 0.00 | 0.00 | 0.00 | 85 | 1012.6 |
| 20260905041514 | 64 | 326 | 0.0 | 1.0 | 0.00 | 0.00 | 0.00 | 87 | 1012.6 |
| 20260905040013 | 64 | 248 | 0.0 | 1.0 | 0.00 | 0.00 | 0.00 | 87 | 1012.6 |
| 20260905034512 | 65 | 141 | 0.0 | 1.0 | 0.00 | 0.00 | 0.00 | 85 | 1012.5 |
| 20260905033011 | 65 | 36 | 0.0 | 5.0 | 0.00 | 0.00 | 0.00 | 84 | 1012.6 |
| 20260905031511 | 65 | 53 | 0.0 | 4.0 | 0.00 | 0.00 | 0.00 | 85 | 1012.7 |
| 20260905030010 | 66 | 345 | 0.0 | 4.0 | 0.00 | 0.00 | 0.00 | 84 | 1012.7 |
| 20260905024509 | 66 | 341 | 0.0 | 6.0 | 0.00 | 0.00 | 0.00 | 83 | 1012.8 |
| 20260905023010 | 66 | 343 | 2.0 | 7.0 | 0.00 | 0.00 | 0.00 | 82 | 1012.7 |
| 20260905021508 | 67 | 23 | 3.0 | 8.0 | 0.00 | 0.00 | 0.00 | 82 | 1012.8 |
| 20260905020011 | 67 | 5 | 2.0 | 7.0 | 0.00 | 0.00 | 0.00 | 81 | 1012.6 |
| 20260905014508 | 68 | 360 | 4.0 | 12.0 | 0.00 | 0.00 | 0.00 | 79 | 1012.7 |
| 20260905013010 | 68 | 326 | 4.0 | 12.0 | 0.00 | 0.00 | 0.00 | 78 | 1012.9 |
| 20260905011513 | 69 | 315 | 5.0 | 10.0 | 0.00 | 0.00 | 0.00 | 78 | 1012.8 |
| 20260905010007 | 68 | 336 | 3.0 | 6.0 | 0.00 | 0.00 | 0.00 | 80 | 1012.7 |
| 20260905004505 | 67 | 315 | 0.0 | 0.0 | 0.00 | 0.00 | 0.00 | 84 | 1012.6 |
| 20260905003004 | 68 | 315 | 0.0 | 0.0 | 0.00 | 0.00 | 0.00 | 80 | 1012.6 |
| 20260905001506 | 69 | 326 | 0.0 | 1.0 | 0.00 | 0.00 | 0.00 | 79 | 1012.5 |
| 20260905000002 | 70 | 326 | 2.0 | 4.0 | 0.00 | 0.00 | 0.00 | 78 | 1012.3 |
| 20260904234502 | 70 | 335 | 2.0 | 4.0 | 0.00 | 0.00 | 0.00 | 77 | 1011.9 |
| 20260904233001 | 71 | 346 | 1.0 | 4.0 | 0.00 | 0.00 | 0.00 | 76 | 1011.6 |
| 20260904231500 | 71 | 349 | 2.0 | 5.0 | 0.00 | 0.00 | 0.00 | 75 | 1011.7 |
| 20260904230111 | 72 | 25 | 1.0 | 7.0 | 0.00 | 0.00 | 0.00 | 75 | 1011.7 |
| 20260904224559 | 72 | 13 | 4.0 | 8.0 | 0.00 | 0.00 | 0.00 | 74 | 1011.7 |
| 20260904223104 | 73 | 13 | 4.0 | 10.0 | 0.00 | 0.00 | 0.00 | 72 | 1011.7 |
| 20260904221603 | 73 | 349 | 1.0 | 5.0 | 0.00 | 0.00 | 0.00 | 73 | 1011.8 |
| 20260904220118 | 73 | 10 | 0.0 | 2.0 | 0.00 | 0.00 | 0.00 | 74 | 1011.8 |
| 20260904214557 | 73 | 27 | 0.0 | 3.0 | 0.00 | 0.00 | 0.00 | 73 | 1012.0 |
| 20260904213057 | 73 | 328 | 1.0 | 3.0 | 0.00 | 0.00 | 0.00 | 72 | 1011.8 |
| 20260904211556 | 73 | 295 | 0.0 | 2.0 | 0.00 | 0.00 | 0.00 | 74 | 1011.7 |
| 20260904210056 | 73 | 281 | 0.0 | 4.0 | 0.00 | 0.00 | 0.00 | 77 | 1011.8 |
| 20260904204555 | 73 | 251 | 4.0 | 9.0 | 0.00 | 0.00 | 0.00 | 71 | 1011.9 |
| 20260904203054 | 75 | 254 | 2.0 | 6.0 | 0.00 | 0.00 | 0.00 | 72 | 1011.7 |
| 20260904201558 | 74 | 266 | 3.0 | 9.0 | 0.00 | 0.00 | 0.00 | 70 | 1011.9 |
| 20260904200100 | 75 | 243 | 3.0 | 7.0 | 0.00 | 0.00 | 0.00 | 68 | 1012.0 |
| 20260904194552 | 75 | 226 | 5.0 | 10.0 | 0.00 | 0.00 | 0.00 | 70 | 1012.3 |
| 20260904193053 | 75 | 255 | 3.0 | 7.0 | 0.00 | 0.00 | 0.00 | 70 | 1012.4 |
| 20260904191551 | 75 | 227 | 5.0 | 8.0 | 0.00 | 0.00 | 0.00 | 67 | 1012.3 |
| 20260904190049 | 74 | 268 | 3.0 | 9.0 | 0.00 | 0.00 | 0.00 | 68 | 1012.4 |
| 20260904184607 | 75 | 283 | 5.0 | 9.0 | 0.00 | 0.00 | 0.00 | 68 | 1012.4 |
| 20260904183046 | 75 | 263 | 3.0 | 7.0 | 0.00 | 0.00 | 0.00 | 71 | 1012.5 |
| 20260904181546 | 73 | 282 | 3.0 | 7.0 | 0.00 | 0.00 | 0.00 | 70 | 1012.7 |
| 20260904180046 | 74 | 236 | 2.0 | 5.0 | 0.00 | 0.00 | 0.00 | 72 | 1012.7 |
| 20260904174611 | 73 | 313 | 2.0 | 5.0 | 0.00 | 0.00 | 0.00 | 73 | 1012.7 |
| 20260904173047 | 73 | 276 | 3.0 | 7.0 | 0.00 | 0.00 | 0.00 | 72 | 1012.8 |
| 20260904171544 | 73 | 276 | 4.0 | 10.0 | 0.00 | 0.00 | 0.00 | 74 | 1012.7 |
| 20260904170048 | 74 | 267 | 5.0 | 9.0 | 0.00 | 0.00 | 0.00 | 71 | 1012.8 |
| 20260904164541 | 74 | 288 | 3.0 | 7.0 | 0.00 | 0.00 | 0.00 | 72 | 1012.9 |
| 20260904163050 | 73 | 235 | 4.0 | 8.0 | 0.00 | 0.00 | 0.00 | 74 | 1012.9 |
| 20260904161537 | 73 | 264 | 4.0 | 8.0 | 0.00 | 0.00 | 0.00 | 75 | 1013.0 |
| 20260904160035 | 73 | 255 | 2.0 | 8.0 | 0.00 | 0.00 | 0.00 | 75 | 1013.2 |
| 20260904154534 | 72 | 231 | 3.0 | 5.0 | 0.00 | 0.00 | 0.00 | 75 | 1013.2 |
| 20260904153033 | 71 | 348 | 2.0 | 5.0 | 0.00 | 0.00 | 0.00 | 77 | 1013.0 |
| 20260904151530 | 71 | 70 | 2.0 | 5.0 | 0.00 | 0.00 | 0.00 | 80 | 1013.0 |
| 20260904150034 | 70 | 313 | 3.0 | 5.0 | 0.00 | 0.00 | 0.00 | 80 | 1013.1 |
| 20260904144527 | 70 | 328 | 3.0 | 6.0 | 0.00 | 0.00 | 0.00 | 81 | 1013.3 |
| 20260904143026 | 70 | 195 | 0.0 | 4.0 | 0.00 | 0.00 | 0.00 | 82 | 1013.4 |
| 20260904141525 | 69 | 335 | 2.0 | 5.0 | 0.00 | 0.00 | 0.00 | 82 | 1013.5 |
| 20260904140023 | 69 | 331 | 3.0 | 8.0 | 0.00 | 0.00 | 0.00 | 83 | 1013.6 |
| 20260904134521 | 68 | 354 | 1.0 | 5.0 | 0.00 | 0.00 | 0.00 | 82 | 1013.5 |
| 20260904133019 | 68 | 295 | 1.0 | 4.0 | 0.00 | 0.00 | 0.00 | 82 | 1013.3 |
| 20260904131516 | 67 | 349 | 2.0 | 4.0 | 0.00 | 0.00 | 0.00 | 84 | 1013.4 |
| 20260904130017 | 67 | 306 | 2.0 | 4.0 | 0.00 | 0.00 | 0.00 | 84 | 1013.2 |
| 20260904124522 | 67 | 298 | 1.0 | 6.0 | 0.00 | 0.00 | 0.00 | 88 | 1013.3 |
| 20260904123012 | 66 | 295 | 2.0 | 5.0 | 0.00 | 0.00 | 0.00 | 88 | 1013.4 |
| 20260904121512 | 66 | 288 | 2.0 | 6.0 | 0.00 | 0.00 | 0.00 | 88 | 1013.3 |
| 20260904120011 | 65 | 304 | 2.0 | 5.0 | 0.00 | 0.00 | 0.00 | 90 | 1013.3 |
| 20260904114509 | 64 | 289 | 0.0 | 3.0 | 0.00 | 0.00 | 0.00 | 93 | 1013.2 |
| 20260904113008 | 62 | 248 | 1.0 | 2.0 | 0.00 | 0.00 | 0.00 | 96 | 1013.2 |
| 20260904111507 | 61 | 242 | 0.0 | 1.0 | 0.00 | 0.00 | 0.00 | 96 | 1013.2 |
| 20260904110006 | 61 | 200 | 0.0 | 0.0 | 0.00 | 0.00 | 0.00 | 98 | 1013.1 |
| 20260904104502 | 60 | 200 | 0.0 | 0.0 | 0.00 | 0.00 | 0.00 | 97 | 1012.9 |
| 20260904103001 | 60 | 197 | 0.0 | 0.0 | 0.00 | 0.00 | 0.00 | 97 | 1012.8 |
| 20260904101558 | 60 | 197 | 0.0 | 2.0 | 0.00 | 0.00 | 0.00 | 95 | 1012.5 |
| 20260904100057 | 62 | 231 | 0.0 | 1.0 | 0.00 | 0.00 | 0.00 | 95 | 1012.4 |
| 20260904094559 | 64 | 298 | 0.0 | 2.0 | 0.00 | 0.00 | 0.00 | 94 | 1012.3 |
| 20260904093103 | 63 | 312 | 1.0 | 3.0 | 0.00 | 0.00 | 0.00 | 99 | 1012.2 |
| 20260904091553 | 62 | 231 | 0.0 | 0.0 | 0.00 | 0.00 | 0.00 | 99 | 1012.2 |
| 20260904090051 | 61 | 158 | 0.0 | 0.0 | 0.00 | 0.00 | 0.00 | 98 | 1011.9 |
| 20260904084553 | 61 | 162 | 0.0 | 0.0 | 0.00 | 0.00 | 0.00 | 98 | 1011.9 |